[[{"header":{"parameterUnit":"m.s-1","parameterCategory":1,"la1":30.2991,"la2":30.254,"lo1":-89.0895,"lo2":-89.0444,"dy":0.0017,"dx":0.0017,"nx":28,"ny":28,"refTime":"2025-05-19T03:00:00:Z","depth":0,"parameterNumber":2,"parameterNumberName":"U-component_of_WINDS"},"data":[0,0,0,0,0,0,0,0,0,0,0,0,0,0,0,0,0,0,0,0,0,0,0,0,0,0,0,0,0,0,0,0,0,0,0,0,0,0,0,0,0,0,0,0,0,0,0,0,0,0,0,0,0,0,0,0,0,0,1.5354,1.5354,0,1.5378,1.5378,1.5378,1.5365,1.5364,1.5363,1.5363,1.5385,1.5386,1.5388,0,0,0,0,0,0,0,0,0,0,0,0,0,1.5296,1.5297,1.5354,1.5354,1.5355,1.5378,1.5378,1.5378,1.5365,1.5364,1.5363,1.5362,1.5385,1.5386,1.5388,0,0,0,0,0,0,0,0,0,0,0,0,0,1.532,1.5297,1.5354,1.5351,1.5351,1.5378,1.5378,1.5378,1.5365,1.5364,1.5363,1.5362,1.5384,1.5386,1.5388,1.5419,0,0,1.5394,1.5394,0,0,0,0,0,0,0,0,1.5319,1.5322,1.5351,1.5351,1.5351,1.5367,1.5366,1.5392,1.5365,1.5359,1.5363,1.5361,1.538,1.5382,1.5389,1.542,1.5421,1.5394,1.5395,1.5396,1.5396,0,0,0,0,0,0,0,1.5317,1.5321,1.5363,1.5351,1.5351,1.5347,1.535,1.5371,1.5375,1.536,1.5359,1.5362,1.538,1.5387,1.5389,1.5422,1.5394,1.5395,1.5396,1.5397,1.548,1.5481,0,0,0,0,0,0,1.5316,1.532,1.5363,1.5364,1.5332,1.5349,1.5352,1.5363,1.5375,1.5376,1.5363,1.5361,1.5384,1.5387,1.539,1.5427,1.5396,1.5397,1.5398,1.5479,1.548,1.5481,0,0,0,0,0,0,1.5315,1.532,1.5362,1.5342,1.5347,1.5351,1.5364,1.5364,1.5371,1.5377,1.5377,1.5369,1.5384,1.5387,1.5412,1.5427,1.5398,1.54,1.5477,1.5479,1.548,1.5501,0,0,0,0,0,0,1.5313,1.532,1.5332,1.5342,1.5348,1.5384,1.5365,1.5365,1.5374,1.5373,1.5383,1.5384,1.5383,1.5409,1.5414,1.5429,1.5401,1.5476,1.5478,1.548,1.5499,1.5503,1.5507,0,0,0,0,0,1.5311,1.5336,1.5332,1.5338,1.5363,1.5385,1.5388,1.5387,1.5376,1.5388,1.5392,1.5384,1.5425,1.5412,1.5417,1.5433,1.5475,1.5477,1.548,1.5497,1.5503,1.5507,0,0,0,0,0,0,1.5327,1.5338,1.5333,1.5363,1.5373,1.5383,1.5398,1.5392,1.5406,1.5403,1.5401,1.5403,1.5429,1.5434,1.5419,1.5464,1.5448,1.5452,1.546,1.5465,1.5469,1.5467,1.5403,0,0,0,0,0,1.5334,1.5351,1.5359,1.5385,1.539,1.5393,1.5402,1.5401,1.5411,1.5415,1.542,1.543,1.5446,1.5456,1.547,1.55,1.5502,1.5514,1.5518,1.5521,1.5524,1.554,1.5545,1.5489,1.5489,1.5489,0,0,1.5348,1.5356,1.5367,1.5388,1.5396,1.5413,1.5397,1.5416,1.5428,1.5418,1.5441,1.5446,1.5457,1.5484,1.5497,1.5489,1.554,1.5524,1.5526,1.5528,1.5543,1.5548,1.5553,1.5491,1.549,1.549,0,0,1.5384,1.5392,1.5414,1.5422,1.5434,1.5436,1.5441,1.5451,1.5454,1.5478,1.547,1.5485,1.5512,1.5519,1.5527,1.5565,1.5559,1.557,1.559,1.5606,1.561,1.5614,1.5627,1.5632,1.5573,1.5573,1.5573,0,1.54,1.5426,1.5425,1.5445,1.5454,1.5446,1.5468,1.5476,1.5492,1.5498,1.5489,1.5522,1.5529,1.5558,1.5567,1.5574,1.5579,1.5569,1.561,1.5614,1.5617,1.563,1.5635,1.5575,1.5574,1.5574,1.5574,0,1.5445,1.5463,1.548,1.5496,1.5507,1.5527,1.5529,1.554,1.5538,1.5541,1.5565,1.5573,1.5588,1.5595,1.5593,1.5624,1.5619,1.561,1.5594,1.5624,1.5636,1.564,1.5576,1.5576,1.5576,1.5575,0,0,1.549,1.5506,1.5512,1.5519,1.5532,1.5546,1.5566,1.5582,1.5592,1.5603,1.5619,1.5642,1.5634,1.5643,1.5641,1.5655,1.5684,1.5644,1.5644,1.5651,1.5718,1.5725,1.573,1.568,1.5681,1.5682,1.5717,0,1.5526,1.5562,1.5562,1.5594,1.5611,1.5604,1.5621,1.5631,1.5634,1.5648,1.5651,1.5667,1.5656,1.5661,1.5674,1.5678,1.5698,1.5675,1.5694,1.5695,1.5691,1.5736,1.5743,1.5776,1.5722,1.5723,1.5723,0,1.5572,1.5585,1.562,1.5631,1.5637,1.5653,1.5668,1.5682,1.5692,1.5693,1.5703,1.57,1.5719,1.5703,1.5731,1.5715,1.5723,1.5726,1.5728,1.5729,1.5711,1.5738,1.5787,1.5792,1.5731,1.573,1.573,0,1.5601,1.5627,1.5652,1.5658,1.5671,1.5682,1.5688,1.5698,1.5708,1.572,1.5726,1.5741,1.5749,1.576,1.576,1.5748,1.5787,1.5771,1.5788,1.5788,1.5796,1.5796,1.5846,1.5802,1.5802,1.5802,1.5802,0,1.564,1.5661,1.5665,1.5679,1.5703,1.5703,1.5726,1.573,1.5739,1.5754,1.5749,1.5763,1.5763,1.5777,1.5778,1.58,1.5803,1.5805,1.5804,1.5805,1.5804,1.5809,1.5807,1.5804,1.5803,1.5803,1.5803,0,1.5675,1.5679,1.5705,1.5715,1.5718,1.5735,1.5744,1.5758,1.5761,1.578,1.5784,1.5789,1.5805,1.5807,1.5826,1.5826,1.5853,1.585,1.5849,1.5849,1.5865,1.5863,1.592,1.5927,1.588,1.588,1.588,0,1.57,1.5716,1.5729,1.5739,1.5746,1.5762,1.5772,1.5772,1.5783,1.5796,1.5808,1.5824,1.5837,1.5864,1.5869,1.5883,1.588,1.59,1.5883,1.5882,1.588,1.5879,1.588,1.5902,1.5903,1.5903,1.5904,0,1.5743,1.5744,1.5759,1.5774,1.5786,1.5798,1.581,1.5818,1.582,1.5832,1.5849,1.5859,1.5879,1.5895,1.5909,1.5915,1.5909,1.5909,1.5914,1.5914,1.5912,1.5913,1.5857,1.5908,1.5907,1.5907,1.5907,1.5907,1.5773,1.5787,1.5798,1.5815,1.5824,1.5835,1.5848,1.5853,1.5868,1.5884,1.5883,1.5902,1.5912,1.5931,1.5938,1.5952,1.5946,1.5952,1.5954,1.5955,1.5957,1.5911,1.5955,1.5955,1.5955,1.5954,1.5954,0,1.5815,1.5822,1.5838,1.5854,1.5867,1.5862,1.5874,1.5885,1.5902,1.5912,1.5925,1.5945,1.596,1.5966,1.5982,1.5992,1.599,1.5996,1.5994,1.5996,1.5962,1.5956,1.5997,1.5997,1.5997,1.5997,1.5997,1.5997,1.5838,1.5862,1.5864,1.5892,1.5899,1.5918,1.5925,1.5935,1.5943,1.5965,1.5978,1.5982,1.5991,1.6006,1.602,1.6022,1.6027,1.6034,1.6034,1.6002,1.5998,1.5994,1.5989,1.6035,1.6035,1.6066,1.6067,1.6067]},{"header":{"parameterUnit":"m.s-1","parameterCategory":1,"la1":30.2991,"la2":30.254,"lo1":-89.0895,"lo2":-89.0444,"dy":0.0017,"dx":0.0017,"nx":28,"ny":28,"refTime":"2025-05-19T03:00:00:Z","depth":0,"parameterNumber":3,"parameterNumberName":"V-component_of_WINDS"},"data":[0,0,0,0,0,0,0,0,0,0,0,0,0,0,0,0,0,0,0,0,0,0,0,0,0,0,0,0,0,0,0,0,0,0,0,0,0,0,0,0,0,0,0,0,0,0,0,0,0,0,0,0,0,0,0,0,0,0,4.7694,4.7692,0,4.7557,4.7555,4.7553,4.7474,4.7473,4.7473,4.7473,4.7324,4.7321,4.7317,0,0,0,0,0,0,0,0,0,0,0,0,0,4.7881,4.7878,4.7694,4.7692,4.769,4.7557,4.7555,4.7553,4.7474,4.7473,4.7473,4.7473,4.7325,4.7321,4.7317,0,0,0,0,0,0,0,0,0,0,0,0,0,4.7777,4.7877,4.7694,4.7635,4.7628,4.7557,4.7555,4.7552,4.7474,4.7473,4.7473,4.7473,4.7327,4.7321,4.7316,4.729,0,0,4.7299,4.7297,0,0,0,0,0,0,0,0,4.7783,4.777,4.7645,4.7639,4.7631,4.7532,4.7566,4.7464,4.7474,4.7532,4.7473,4.7472,4.7393,4.7382,4.7357,4.7283,4.7277,4.7299,4.7295,4.7293,4.7291,0,0,0,0,0,0,0,4.779,4.7776,4.7639,4.7644,4.7635,4.7613,4.7598,4.7547,4.7466,4.7527,4.7521,4.7506,4.7389,4.7363,4.7353,4.7275,4.7299,4.7294,4.729,4.7288,4.7175,4.7176,0,0,0,0,0,0,4.7808,4.7782,4.7644,4.7635,4.7708,4.761,4.7593,4.7564,4.7467,4.7452,4.7507,4.7503,4.7372,4.736,4.7347,4.7312,4.7293,4.7288,4.7285,4.7175,4.7175,4.7176,0,0,0,0,0,0,4.7812,4.7796,4.7649,4.7707,4.7687,4.7608,4.7576,4.7562,4.7535,4.7452,4.7436,4.7495,4.7371,4.7355,4.7306,4.7306,4.7285,4.728,4.7175,4.7175,4.7176,4.7241,0,0,0,0,0,0,4.7818,4.7798,4.7789,4.7708,4.7684,4.7612,4.7575,4.7559,4.7527,4.7521,4.7436,4.7422,4.737,4.7315,4.7301,4.7298,4.7276,4.7174,4.7175,4.7175,4.7239,4.7244,4.7249,0,0,0,0,0,4.7825,4.7811,4.7789,4.7773,4.7671,4.7612,4.7598,4.7541,4.7527,4.7516,4.7463,4.7425,4.7309,4.7311,4.7294,4.7289,4.7174,4.7175,4.7175,4.7237,4.7243,4.7249,0,0,0,0,0,0,4.7891,4.7799,4.7774,4.7733,4.7682,4.7599,4.7584,4.755,4.7498,4.7494,4.7423,4.7405,4.7363,4.7321,4.7325,4.7261,4.7237,4.7234,4.7289,4.7295,4.73,4.731,4.7271,0,0,0,0,0,4.7902,4.7864,4.7784,4.7756,4.7732,4.7663,4.7635,4.7596,4.7538,4.7515,4.7458,4.7402,4.7352,4.7321,4.7271,4.7233,4.7213,4.7222,4.7227,4.7231,4.7229,4.7207,4.721,4.7178,4.7178,4.7178,0,0,4.7921,4.7867,4.7846,4.7768,4.7724,4.7685,4.7645,4.7604,4.7574,4.7508,4.7459,4.7416,4.7348,4.7305,4.7283,4.7269,4.7234,4.7232,4.7236,4.7232,4.7208,4.7211,4.7214,4.7179,4.7178,4.7178,0,0,4.7938,4.7893,4.7866,4.7823,4.7757,4.7712,4.7706,4.7629,4.7598,4.7549,4.7499,4.7461,4.7378,4.7332,4.7298,4.7302,4.7264,4.7287,4.7312,4.7291,4.7294,4.7296,4.7297,4.7299,4.7286,4.7286,4.7286,0,4.797,4.7912,4.7855,4.7819,4.7786,4.7728,4.7699,4.7659,4.758,4.7558,4.7544,4.744,4.739,4.7336,4.7338,4.7312,4.7302,4.7296,4.7299,4.73,4.7301,4.7301,4.7302,4.7289,4.7289,4.7288,4.7288,0,4.7955,4.7915,4.79,4.783,4.7795,4.7762,4.7699,4.7671,4.7636,4.7591,4.7542,4.7481,4.7419,4.7403,4.7366,4.7345,4.7338,4.7313,4.7287,4.7308,4.7307,4.7307,4.7294,4.7293,4.7292,4.7291,0,0,4.8006,4.7908,4.7903,4.7871,4.7796,4.7763,4.7728,4.767,4.7648,4.7595,4.7563,4.7496,4.7473,4.7434,4.7392,4.7374,4.7382,4.7351,4.7348,4.7359,4.7355,4.7375,4.7376,4.7358,4.7358,4.7357,4.7361,0,4.8012,4.795,4.7899,4.7855,4.7817,4.7763,4.7733,4.7683,4.7641,4.7602,4.7554,4.7509,4.7481,4.7458,4.7438,4.7386,4.738,4.7385,4.7326,4.7325,4.7345,4.7376,4.7396,4.7402,4.736,4.736,4.736,0,4.801,4.7964,4.7917,4.7849,4.7831,4.7805,4.7749,4.7713,4.7655,4.7626,4.7585,4.7542,4.7502,4.7482,4.7425,4.743,4.7403,4.7374,4.7373,4.7364,4.7344,4.7368,4.7403,4.7404,4.7359,4.7359,4.7359,0,4.8053,4.7979,4.7942,4.7916,4.7835,4.7818,4.7783,4.7725,4.7694,4.7645,4.7624,4.757,4.7539,4.7498,4.7441,4.7432,4.7391,4.7365,4.7364,4.7366,4.7357,4.7358,4.7387,4.734,4.734,4.734,4.734,0,4.8065,4.8038,4.7961,4.7938,4.7907,4.7849,4.7818,4.7778,4.7728,4.7695,4.7644,4.7614,4.7541,4.7502,4.7458,4.7418,4.7404,4.7379,4.7367,4.7383,4.7387,4.7364,4.7362,4.7341,4.7341,4.7341,4.734,0,4.8107,4.8054,4.8011,4.7939,4.792,4.7901,4.7838,4.7813,4.777,4.7729,4.7716,4.7648,4.7599,4.754,4.7471,4.7441,4.7406,4.7388,4.7426,4.7419,4.7422,4.7423,4.7437,4.7436,4.7391,4.7391,4.7392,0,4.8118,4.8097,4.8024,4.8001,4.7968,4.793,4.7899,4.7841,4.7812,4.7746,4.7729,4.7678,4.7633,4.7559,4.7501,4.7449,4.7429,4.7438,4.7421,4.7439,4.743,4.7432,4.743,4.7443,4.7443,4.7444,4.7445,0,4.8142,4.8118,4.8078,4.803,4.7997,4.7955,4.791,4.7893,4.7826,4.7795,4.7747,4.7713,4.7645,4.7595,4.7536,4.7497,4.7459,4.7451,4.7448,4.7464,4.7487,4.7475,4.7438,4.745,4.745,4.7449,4.7449,4.7449,4.8169,4.8149,4.8096,4.8053,4.8015,4.7976,4.795,4.7905,4.7865,4.7808,4.7775,4.7728,4.7672,4.759,4.7553,4.7515,4.75,4.7496,4.7495,4.7494,4.75,4.7495,4.7503,4.7503,4.7503,4.7503,4.7502,0,4.8191,4.8156,4.8118,4.806,4.8026,4.7998,4.7948,4.7921,4.7882,4.7834,4.7793,4.7738,4.769,4.7631,4.7578,4.7558,4.754,4.7546,4.7547,4.7539,4.7515,4.7523,4.7563,4.7563,4.7563,4.7563,4.7563,4.7563,4.8199,4.8164,4.8134,4.8079,4.8043,4.7999,4.7973,4.7937,4.7899,4.7841,4.7802,4.7765,4.7712,4.7656,4.761,4.7594,4.7577,4.7589,4.7567,4.7546,4.754,4.7535,4.7543,4.7585,4.7585,4.7594,4.7594,4.7594]}]]